Wind_Speed
14 15 14 13 13 13 13 13 12 11 11 10 10 11 11 10 11 11 9 8 8 8 8 7 7 7 7 8 8 7 6 6 5 3 3 4 5 4 2 1 1 0
14 14 14 14 13 12 12 12 12 11 12 11 10 11 12 12 13 14 12 9 8 8 7 7 7 7 7 7 7 8 6 6 6 4 2 2 3 4 3 1 0 2
15 14 14 14 14 13 11 11 12 11 11 12 11 11 11 11 12 13 13 10 8 8 7 7 7 7 7 7 7 7 6 6 6 4 3 3 2 2 1 1 1 2
15 14 14 13 13 13 12 12 12 11 11 11 11 10 9 10 11 11 12 10 10 10 9 7 7 7 8 8 7 7 6 5 6 6 5 4 4 3 2 2 2 3
16 15 15 14 12 13 14 13 13 12 11 11 11 11 12 12 11 10 11 11 11 12 10 8 8 7 7 8 7 7 6 5 4 5 5 4 4 3 2 4 4 5
17 16 16 16 14 14 14 13 12 13 12 11 11 12 13 13 11 9 10 10 11 12 10 8 8 8 7 7 7 8 7 6 5 7 6 5 5 4 4 5 6 7
18 17 17 18 16 15 15 13 12 13 12 12 12 12 12 12 11 11 10 10 9 10 9 8 8 8 8 8 7 8 8 8 8 8 7 6 6 6 7 7 7 9
18 18 18 18 17 16 16 15 14 14 13 12 12 12 11 11 11 11 11 11 10 10 11 11 11 10 10 9 8 8 9 8 8 8 7 7 7 8 7 7 8 10
19 19 19 18 17 17 16 15 15 16 15 14 13 12 12 12 12 11 11 12 12 12 12 13 12 10 10 10 8 8 8 8 8 9 8 7 8 8 7 8 8 9
20 19 19 19 18 17 17 16 16 16 15 15 15 13 13 13 12 12 13 12 12 13 13 12 12 10 10 11 10 9 9 8 9 10 9 8 7 8 7 8 8 8
20 19 19 19 18 18 17 17 16 16 15 15 15 15 15 13 11 12 15 13 12 12 13 12 12 11 11 11 10 9 9 8 9 9 9 9 9 9 8 8 9 9
21 20 19 19 19 17 16 17 17 16 16 15 15 17 17 16 13 13 14 13 11 12 12 11 11 11 10 10 10 10 9 8 9 8 8 9 9 8 9 10 10 9
22 21 20 19 19 18 16 16 17 17 16 15 15 16 17 16 14 14 13 12 12 12 12 11 10 10 10 10 10 10 10 10 10 9 9 10 9 8 9 10 10 10
24 23 21 19 18 18 17 16 16 17 16 14 14 15 16 16 15 15 14 14 12 12 13 12 11 11 10 10 10 11 11 11 11 10 11 11 10 8 8 9 10 11
25 24 22 20 18 17 18 18 16 16 17 15 13 14 15 15 14 13 14 15 13 12 12 12 12 12 12 10 11 11 11 11 11 12 12 12 12 11 9 8 9 10
24 24 23 23 20 17 19 20 17 15 16 16 14 14 14 14 14 13 13 13 13 13 13 13 13 14 13 11 11 11 10 10 11 11 12 12 12 11 11 9 9 9
23 21 21 23 22 18 18 21 20 16 14 16 16 15 14 15 15 14 13 13 13 13 14 14 15 16 14 12 12 12 11 11 11 10 10 11 10 10 10 10 9 9
23 20 18 18 20 19 18 20 23 21 18 17 17 17 17 17 16 15 15 14 13 12 14 15 16 16 14 13 13 14 13 13 12 10 9 10 9 9 9 10 10 11
24 22 19 16 16 20 22 24 25 24 24 22 20 19 19 19 18 17 16 15 13 12 15 16 15 14 15 15 15 16 14 14 14 12 11 12 10 9 10 11 11 11
23 22 23 22 21 23 25 26 25 24 25 26 25 22 19 18 19 18 16 16 15 14 16 17 16 16 17 17 17 17 16 16 15 14 14 12 10 11 12 14 14 13
21 21 24 27 27 26 27 27 26 25 24 24 25 24 21 18 18 17 16 16 16 15 16 18 17 17 18 18 18 17 17 17 16 15 14 11 10 13 16 17 17 17
21 22 24 26 28 28 29 28 27 27 26 25 24 24 23 21 20 18 17 16 16 17 17 18 19 19 19 19 19 18 18 17 16 15 13 11 12 16 17 18 18 18
21 22 22 24 26 27 27 26 25 25 25 25 23 22 22 22 22 21 20 19 19 19 19 19 20 21 21 21 20 20 18 17 16 15 13 14 16 18 18 18 18 17
18 20 20 22 24 24 23 23 23 23 23 24 23 22 21 20 21 22 23 23 22 22 22 22 21 21 21 20 20 20 18 17 16 15 14 15 16 16 16 17 16 16
16 18 19 20 21 20 22 23 23 23 22 22 22 22 22 19 18 21 25 25 24 25 25 25 24 22 21 20 19 18 17 16 16 16 16 16 17 16 16 15 15 16
15 16 17 18 19 19 21 23 24 24 24 23 22 21 20 19 19 22 25 25 25 27 27 26 25 23 22 21 19 18 17 16 17 16 16 17 18 17 15 15 16 18
Wind_Direction
186 185 184 185 183 185 186 180 180 180 177 180 180 178 178 172 172 185 196 194 192 191 191 190 188 187 186 183 183 182 178 173 175 185 179 177 173 145 139 215 8 187
187 190 188 187 184 187 190 182 180 184 180 178 180 183 185 183 182 184 191 199 197 194 196 195 196 194 189 190 188 186 190 179 172 190 195 191 184 155 155 193 13 291
189 193 190 188 188 188 186 178 180 187 184 181 186 192 189 188 193 190 193 199 188 191 208 199 193 199 195 198 195 187 197 186 169 193 217 209 210 178 159 212 191 266
192 193 188 190 193 188 185 185 186 187 187 188 190 192 184 189 203 198 197 200 181 186 212 205 193 200 197 203 203 189 201 207 189 199 212 210 220 215 219 257 223 227
193 191 184 187 194 188 188 194 192 186 188 193 194 191 183 191 209 204 198 203 188 187 207 206 194 200 204 206 206 199 203 213 227 235 233 230 228 222 243 260 255 248
194 191 185 186 191 189 187 194 193 186 188 193 195 199 194 196 205 201 200 207 198 193 203 210 202 200 212 215 205 207 206 198 228 251 252 247 234 223 237 244 250 262
195 191 189 187 189 191 188 193 195 189 192 195 194 200 203 206 204 195 198 205 203 195 193 214 222 201 209 225 213 213 217 208 219 238 246 250 245 234 230 232 245 261
195 194 194 190 192 195 191 195 198 193 193 195 198 200 199 207 208 199 199 198 198 198 192 208 225 210 207 223 222 222 227 222 229 245 249 243 247 250 240 234 242 253
194 196 197 194 196 199 197 200 202 198 194 192 197 200 199 207 206 200 209 205 196 201 201 207 220 218 212 217 222 230 230 224 227 239 250 250 249 254 252 250 252 256
196 198 199 198 199 200 200 203 204 202 197 195 198 198 200 210 204 194 211 216 202 203 210 213 218 221 220 217 219 231 235 232 229 230 242 255 255 252 254 258 261 263
200 200 200 202 201 201 202 203 206 206 200 197 203 203 199 203 202 199 211 218 211 210 216 220 222 224 225 220 220 228 233 237 239 239 247 254 256 257 256 255 257 260
202 202 203 204 204 204 204 204 209 212 206 201 205 208 203 198 198 208 218 220 216 216 220 221 221 225 227 223 224 228 229 234 238 239 246 252 255 259 262 264 267 268
203 204 204 205 206 206 205 207 215 219 216 212 210 212 211 204 196 203 221 229 221 217 223 225 221 224 229 226 225 228 229 233 239 240 241 247 251 251 254 263 269 269
204 205 205 206 210 210 206 206 216 222 223 222 219 214 212 212 205 200 213 229 228 217 219 225 225 225 230 229 225 228 231 234 239 243 245 249 254 252 249 256 265 268
206 205 204 204 209 214 212 207 210 221 227 230 230 219 211 217 221 213 212 221 226 224 224 229 230 228 231 234 229 231 237 238 237 240 247 251 254 253 250 253 262 268
209 208 206 203 203 211 215 210 207 214 224 227 228 222 214 218 227 228 224 223 227 229 226 227 232 230 230 232 232 236 241 241 240 244 248 252 254 254 254 257 262 270
209 208 208 206 204 208 216 216 213 212 215 215 215 216 215 215 218 223 225 227 233 233 224 226 234 235 233 233 235 241 243 240 247 256 255 255 260 261 261 266 268 271
211 206 207 207 202 203 208 214 216 215 212 210 210 214 216 215 214 217 216 217 226 231 228 234 239 235 233 236 240 245 244 240 247 258 260 263 270 277 287 296 291 285
211 207 212 215 209 209 211 213 217 217 214 211 211 214 218 220 219 220 220 218 219 228 236 240 240 235 234 238 243 248 248 245 248 255 260 265 270 279 291 295 288 282
214 211 216 221 221 223 223 221 221 223 220 217 217 217 219 223 221 216 219 220 218 227 238 239 236 234 236 239 241 246 249 250 254 259 264 271 274 270 271 273 271 269
217 212 213 218 222 225 228 228 226 227 225 222 224 223 220 225 226 218 214 216 216 222 231 235 234 233 234 236 239 244 248 251 257 261 262 267 270 263 260 262 266 268
217 214 212 217 220 221 225 227 226 226 226 224 226 226 219 221 230 230 224 222 224 227 230 234 237 239 240 239 239 242 246 250 256 258 251 244 247 251 253 256 261 266
219 221 217 216 216 215 217 221 223 223 224 223 224 224 218 216 224 232 233 229 229 233 236 237 238 240 242 242 240 241 244 247 250 247 239 236 241 245 249 255 260 265
214 219 215 211 211 210 210 214 220 222 223 223 223 225 225 219 218 228 234 230 227 233 239 240 240 239 239 241 241 240 241 242 242 240 236 239 245 249 250 254 259 262
211 213 212 213 214 211 208 213 220 224 225 226 227 229 232 226 217 223 231 231 230 233 235 237 238 236 236 240 243 240 237 238 239 240 241 243 249 253 255 259 263 264
214 204 199 207 213 210 208 212 219 224 224 225 226 228 231 230 224 223 229 234 233 230 229 229 230 229 232 240 246 246 243 244 245 244 242 242 247 251 254 259 262 263
Height
1573 1574 1575 1577 1578 1579 1580 1581 1582 1583 1585 1586 1587 1588 1589 1591 1592 1593 1594 1595 1595 1596 1597 1598 1599 1600 1601 1602 1603 1603 1604 1604 1604 1605 1605 1605 1606 1606 1607 1607 1607 1608
1572 1574 1575 1576 1577 1578 1579 1580 1582 1583 1584 1585 1586 1588 1589 1590 1591 1592 1593 1593 1594 1595 1596 1597 1598 1599 1600 1601 1602 1602 1603 1603 1604 1604 1604 1605 1605 1605 1606 1607 1607 1608
1572 1573 1574 1575 1576 1577 1579 1580 1581 1582 1583 1584 1585 1587 1587 1589 1590 1590 1592 1592 1593 1594 1595 1596 1597 1598 1599 1600 1600 1601 1602 1603 1603 1604 1604 1604 1604 1605 1605 1606 1607 1607
1571 1572 1573 1574 1575 1577 1578 1579 1580 1581 1582 1583 1584 1585 1587 1588 1588 1589 1590 1591 1592 1594 1594 1595 1596 1597 1598 1599 1599 1600 1601 1602 1602 1603 1603 1603 1604 1604 1605 1606 1606 1607
1569 1571 1572 1573 1574 1576 1577 1578 1579 1580 1581 1582 1583 1584 1585 1586 1587 1588 1589 1590 1591 1592 1593 1594 1595 1596 1597 1597 1598 1599 1600 1601 1601 1601 1602 1603 1603 1604 1604 1605 1605 1606
1568 1569 1571 1572 1573 1574 1576 1577 1578 1579 1580 1581 1582 1583 1584 1585 1586 1587 1588 1589 1590 1591 1592 1593 1594 1595 1596 1596 1597 1598 1599 1600 1601 1601 1601 1602 1602 1603 1604 1604 1604 1605
1566 1567 1569 1570 1572 1573 1574 1576 1577 1578 1579 1581 1582 1583 1583 1584 1585 1586 1587 1588 1589 1590 1592 1593 1593 1594 1595 1595 1596 1597 1598 1599 1600 1600 1600 1601 1601 1602 1602 1603 1603 1604
1565 1566 1567 1569 1570 1572 1573 1575 1576 1577 1579 1580 1581 1582 1583 1584 1585 1586 1587 1588 1589 1590 1591 1592 1592 1593 1594 1595 1595 1596 1597 1598 1599 1599 1600 1600 1600 1601 1601 1602 1602 1603
1564 1565 1566 1567 1569 1571 1572 1574 1575 1576 1578 1579 1581 1582 1583 1583 1584 1585 1586 1587 1588 1589 1590 1591 1591 1592 1594 1594 1595 1596 1596 1597 1598 1598 1599 1599 1599 1600 1600 1601 1601 1602
1563 1564 1565 1567 1568 1570 1572 1573 1574 1575 1577 1578 1580 1581 1582 1583 1584 1585 1586 1586 1587 1588 1589 1590 1591 1592 1593 1593 1594 1595 1596 1597 1597 1598 1598 1598 1598 1599 1599 1600 1600 1600
1562 1563 1565 1566 1568 1570 1571 1573 1574 1574 1576 1578 1579 1580 1581 1582 1583 1584 1585 1586 1587 1588 1588 1590 1590 1591 1592 1593 1594 1594 1595 1596 1596 1597 1597 1597 1598 1598 1599 1599 1599 1599
1561 1563 1564 1566 1568 1569 1571 1573 1573 1574 1576 1577 1578 1579 1580 1582 1583 1584 1585 1585 1586 1587 1588 1589 1590 1591 1592 1592 1593 1594 1594 1595 1595 1596 1596 1597 1597 1597 1598 1598 1599 1599
1560 1562 1564 1566 1568 1570 1571 1573 1573 1574 1576 1577 1578 1579 1580 1581 1582 1584 1584 1585 1586 1587 1588 1589 1589 1590 1591 1591 1592 1593 1593 1594 1594 1595 1595 1595 1596 1596 1597 1598 1598 1598
1560 1562 1564 1566 1568 1569 1571 1573 1574 1574 1575 1577 1578 1579 1579 1580 1582 1583 1584 1585 1586 1586 1587 1588 1588 1589 1590 1590 1591 1592 1592 1592 1593 1594 1594 1594 1595 1595 1596 1596 1597 1598
1559 1561 1563 1566 1568 1569 1571 1573 1574 1574 1574 1576 1577 1578 1579 1580 1581 1582 1583 1584 1585 1585 1586 1587 1587 1588 1588 1589 1590 1590 1591 1592 1592 1592 1593 1593 1594 1594 1595 1595 1596 1596
1559 1561 1562 1565 1567 1569 1570 1571 1573 1574 1574 1575 1575 1577 1578 1580 1580 1581 1582 1583 1584 1585 1586 1586 1586 1587 1587 1588 1589 1590 1590 1591 1591 1591 1592 1593 1593 1593 1594 1594 1595 1595
1558 1560 1563 1565 1566 1568 1569 1570 1571 1572 1573 1574 1575 1576 1578 1579 1580 1581 1582 1583 1583 1584 1585 1585 1585 1585 1586 1587 1588 1589 1590 1590 1590 1591 1591 1592 1592 1592 1593 1593 1593 1594
1557 1560 1561 1562 1564 1566 1566 1567 1568 1569 1570 1572 1573 1575 1576 1577 1579 1580 1581 1582 1583 1583 1583 1583 1584 1585 1585 1586 1587 1588 1589 1589 1590 1590 1590 1591 1591 1591 1592 1592 1592 1593
1555 1560 1561 1563 1564 1565 1564 1564 1565 1566 1567 1569 1570 1572 1575 1576 1578 1579 1580 1581 1582 1582 1581 1581 1582 1583 1584 1585 1586 1586 1587 1588 1588 1589 1589 1590 1590 1591 1591 1591 1591 1591
1553 1557 1560 1562 1563 1563 1561 1561 1563 1564 1565 1566 1568 1570 1572 1574 1576 1577 1578 1579 1579 1578 1578 1579 1580 1581 1582 1584 1584 1585 1586 1586 1587 1588 1588 1589 1590 1590 1590 1589 1589 1589
1552 1555 1556 1557 1559 1559 1559 1560 1561 1561 1563 1564 1566 1567 1569 1573 1576 1576 1575 1576 1575 1574 1575 1576 1577 1579 1580 1581 1582 1583 1584 1585 1585 1586 1587 1588 1589 1588 1587 1587 1587 1587
1550 1552 1552 1554 1556 1556 1556 1557 1558 1559 1560 1562 1563 1564 1567 1572 1576 1575 1574 1574 1574 1574 1575 1575 1576 1577 1578 1579 1581 1582 1582 1583 1584 1584 1585 1586 1585 1585 1585 1585 1586 1586
1547 1548 1550 1551 1552 1553 1554 1556 1557 1558 1558 1559 1560 1562 1564 1570 1572 1571 1570 1571 1572 1573 1573 1573 1575 1576 1577 1578 1579 1580 1580 1581 1582 1582 1583 1583 1582 1582 1583 1584 1584 1584
1544 1546 1548 1549 1549 1551 1554 1555 1556 1556 1557 1557 1558 1559 1561 1566 1568 1567 1566 1566 1568 1570 1571 1572 1573 1574 1575 1576 1577 1578 1578 1579 1580 1580 1580 1580 1580 1581 1582 1582 1583 1583
1541 1544 1545 1546 1547 1549 1552 1553 1553 1554 1554 1556 1556 1557 1558 1562 1565 1565 1563 1563 1565 1567 1568 1569 1570 1571 1573 1574 1574 1576 1576 1577 1577 1578 1578 1578 1578 1579 1580 1581 1581 1581
1538 1540 1543 1544 1545 1546 1548 1549 1550 1551 1552 1553 1554 1555 1556 1558 1561 1562 1562 1562 1563 1564 1565 1566 1567 1568 1570 1571 1572 1573 1574 1574 1575 1575 1575 1576 1576 1577 1578 1578 1578 1578